[[{"header":{"parameterUnit":"m.s-1","parameterCategory":1,"la1":30.2991,"la2":30.254,"lo1":-89.0895,"lo2":-89.0444,"dx":0.0017,"dy":0.0017,"nx":28,"ny":28,"refTime":"2023-01-07T03:00:00:Z","depth":0,"parameterNumber":2,"parameterNumberName":"U-component_of_WINDS"},"data":[0,0,0,0,0,0,0,0,0,0,0,0,0,0,0,0,0,0,0,0,0,0,0,0,0,0,0,0,0,0,0,0,0,0,0,0,0,0,0,0,0,0,0,0,0,0,0,0,0,0,0,0,0,0,0,0,0,0,0.94,0.94,0,0.9353,0.9352,0.9352,0.9325,0.9325,0.9325,0.9325,0.9274,0.9273,0.9272,0,0,0,0,0,0,0,0,0,0,0,0,0,0.9466,0.9465,0.9401,0.94,0.9399,0.9353,0.9352,0.9352,0.9325,0.9325,0.9325,0.9325,0.9274,0.9273,0.9271,0,0,0,0,0,0,0,0,0,0,0,0,0,0.943,0.9465,0.9401,0.9381,0.9378,0.9353,0.9352,0.9351,0.9325,0.9325,0.9325,0.9325,0.9275,0.9273,0.9271,0.9262,0,0,0.9265,0.9264,0,0,0,0,0,0,0,0,0.9432,0.9428,0.9384,0.9382,0.9379,0.9345,0.9357,0.9321,0.9325,0.9345,0.9325,0.9325,0.9298,0.9294,0.9285,0.9259,0.9257,0.9265,0.9264,0.9263,0.9263,0,0,0,0,0,0,0,0.9435,0.943,0.9382,0.9384,0.9381,0.9373,0.9368,0.935,0.9323,0.9344,0.9341,0.9336,0.9296,0.9287,0.9284,0.9256,0.9265,0.9263,0.9262,0.9262,0.9219,0.9219,0,0,0,0,0,0,0.9441,0.9432,0.9383,0.938,0.9406,0.9372,0.9366,0.9356,0.9323,0.9318,0.9336,0.9335,0.929,0.9286,0.9282,0.9268,0.9263,0.9261,0.926,0.9219,0.9219,0.9219,0,0,0,0,0,0,0.9442,0.9437,0.9385,0.9405,0.9398,0.9371,0.936,0.9355,0.9346,0.9317,0.9312,0.9332,0.929,0.9284,0.9267,0.9265,0.926,0.9259,0.9219,0.9219,0.9219,0.924,0,0,0,0,0,0,0.9444,0.9437,0.9434,0.9406,0.9397,0.9372,0.936,0.9354,0.9343,0.9341,0.9312,0.9307,0.9289,0.927,0.9265,0.9263,0.9257,0.9219,0.9219,0.9219,0.9239,0.9241,0.9242,0,0,0,0,0,0.9447,0.9441,0.9434,0.9428,0.9393,0.9372,0.9367,0.9347,0.9343,0.9339,0.932,0.9308,0.9267,0.9268,0.9262,0.926,0.9219,0.9219,0.9219,0.9238,0.924,0.9242,0,0,0,0,0,0,0.947,0.9437,0.9429,0.9414,0.9396,0.9367,0.9361,0.935,0.9332,0.9331,0.9307,0.93,0.9285,0.927,0.9273,0.9248,0.9241,0.924,0.9258,0.926,0.9261,0.9264,0.9256,0,0,0,0,0,0.9473,0.9459,0.9432,0.9421,0.9413,0.9389,0.9379,0.9366,0.9345,0.9337,0.9318,0.9298,0.928,0.9269,0.9252,0.9237,0.923,0.9232,0.9234,0.9235,0.9234,0.9225,0.9225,0.9219,0.9219,0.9219,0,0,0.948,0.9461,0.9453,0.9426,0.941,0.9395,0.9382,0.9368,0.9357,0.9335,0.9317,0.9302,0.9278,0.9262,0.9254,0.9249,0.9234,0.9235,0.9236,0.9235,0.9225,0.9225,0.9226,0.9219,0.9219,0.9219,0,0,0.9485,0.9469,0.9459,0.9443,0.942,0.9404,0.9402,0.9374,0.9364,0.9346,0.9329,0.9315,0.9285,0.9269,0.9257,0.9255,0.9243,0.925,0.9257,0.9248,0.9249,0.9249,0.9248,0.9248,0.925,0.925,0.925,0,0.9496,0.9474,0.9455,0.9441,0.9429,0.9409,0.9398,0.9384,0.9355,0.9347,0.9343,0.9305,0.9288,0.9267,0.9267,0.9258,0.9254,0.9253,0.925,0.925,0.925,0.9249,0.9249,0.9251,0.9251,0.925,0.925,0,0.9489,0.9474,0.9468,0.9442,0.9429,0.9417,0.9395,0.9384,0.9372,0.9356,0.9337,0.9316,0.9293,0.9288,0.9275,0.9265,0.9263,0.9255,0.9248,0.9252,0.925,0.925,0.9252,0.9252,0.9251,0.9251,0,0,0.9507,0.947,0.9468,0.9456,0.9428,0.9416,0.9402,0.9381,0.9372,0.9353,0.934,0.9316,0.9308,0.9295,0.928,0.9272,0.9272,0.9265,0.9264,0.9267,0.9258,0.9264,0.9264,0.9264,0.9264,0.9263,0.926,0,0.9507,0.9482,0.9464,0.9446,0.9432,0.9413,0.9401,0.9382,0.9367,0.9352,0.9335,0.9318,0.9309,0.9301,0.9292,0.9274,0.927,0.9274,0.9251,0.925,0.9257,0.9263,0.9269,0.9267,0.9259,0.9259,0.9259,0,0.9504,0.9487,0.9467,0.9441,0.9434,0.9424,0.9403,0.9389,0.9367,0.9357,0.9341,0.9327,0.9311,0.9305,0.9282,0.9285,0.9275,0.9264,0.9264,0.926,0.9255,0.9259,0.9266,0.9266,0.9258,0.9258,0.9258,0,0.9518,0.949,0.9474,0.9464,0.9434,0.9427,0.9413,0.9392,0.938,0.9361,0.9353,0.9332,0.9321,0.9305,0.9285,0.9283,0.9263,0.9256,0.9253,0.9254,0.925,0.925,0.9255,0.9244,0.9244,0.9244,0.9244,0,0.952,0.9509,0.948,0.9471,0.9457,0.9436,0.9423,0.9408,0.9389,0.9376,0.9358,0.9346,0.932,0.9304,0.9288,0.9271,0.9266,0.9257,0.9253,0.9258,0.9259,0.925,0.925,0.9244,0.9244,0.9244,0.9244,0,0.9533,0.9514,0.9496,0.9468,0.9461,0.9452,0.9428,0.9418,0.9402,0.9385,0.938,0.9355,0.9335,0.9314,0.9287,0.9276,0.926,0.9254,0.9268,0.9265,0.9263,0.9264,0.9262,0.926,0.9252,0.9252,0.9252,0,0.9536,0.9527,0.9498,0.9488,0.9476,0.946,0.9448,0.9427,0.9415,0.9389,0.9382,0.9361,0.9344,0.9314,0.9292,0.9272,0.9265,0.9266,0.9262,0.9267,0.9264,0.9265,0.9263,0.9267,0.9267,0.9267,0.9267,0,0.9541,0.9532,0.9516,0.9496,0.9482,0.9466,0.9448,0.9441,0.9416,0.9403,0.9383,0.937,0.9343,0.9322,0.9299,0.9284,0.9271,0.9269,0.9267,0.9272,0.928,0.9275,0.927,0.9269,0.9268,0.9268,0.9268,0.9268,0.9549,0.9539,0.9518,0.95,0.9485,0.9469,0.9458,0.9441,0.9424,0.9401,0.9389,0.937,0.9348,0.9315,0.9301,0.9285,0.9281,0.9278,0.9277,0.9277,0.9278,0.9283,0.9281,0.928,0.928,0.928,0.928,0,0.9553,0.9538,0.9522,0.9499,0.9485,0.9474,0.9454,0.9443,0.9426,0.9407,0.939,0.9367,0.9347,0.9325,0.9303,0.9294,0.9288,0.9289,0.9289,0.9286,0.9283,0.9287,0.9295,0.9295,0.9295,0.9295,0.9295,0.9295,0.9553,0.9537,0.9526,0.9502,0.9487,0.9468,0.9457,0.9442,0.9427,0.9402,0.9386,0.9372,0.9351,0.9328,0.9309,0.9302,0.9295,0.9298,0.929,0.9288,0.9286,0.9285,0.9288,0.9297,0.9297,0.9294,0.9294,0.9294]},{"header":{"parameterUnit":"m.s-1","parameterCategory":1,"la1":30.2991,"la2":30.254,"lo1":-89.0895,"lo2":-89.0444,"dx":0.0017,"dy":0.0017,"nx":28,"ny":28,"refTime":"2023-01-07T03:00:00:Z","depth":0,"parameterNumber":3,"parameterNumberName":"V-component_of_WINDS"},"data":[0,0,0,0,0,0,0,0,0,0,0,0,0,0,0,0,0,0,0,0,0,0,0,0,0,0,0,0,0,0,0,0,0,0,0,0,0,0,0,0,0,0,0,0,0,0,0,0,0,0,0,0,0,0,0,0,0,0,2.4424,2.4425,0,2.4489,2.4489,2.449,2.4469,2.4468,2.4467,2.4465,2.4542,2.4546,2.4549,0,0,0,0,0,0,0,0,0,0,0,0,0,2.4295,2.4298,2.4424,2.4425,2.4426,2.4488,2.4489,2.449,2.447,2.4468,2.4466,2.4465,2.4541,2.4545,2.4549,0,0,0,0,0,0,0,0,0,0,0,0,0,2.4355,2.4298,2.4424,2.4423,2.4423,2.4488,2.4489,2.449,2.447,2.4468,2.4466,2.4464,2.454,2.4545,2.455,2.4623,0,0,2.4565,2.4567,0,0,0,0,0,0,0,0,2.4351,2.436,2.4422,2.4423,2.4424,2.4468,2.4472,2.4535,2.4471,2.4453,2.4465,2.4463,2.452,2.4527,2.4544,2.4627,2.463,2.4566,2.4569,2.4571,2.4572,0,0,0,0,0,0,0,2.4347,2.4357,2.445,2.4423,2.4424,2.4423,2.4429,2.4484,2.4498,2.4454,2.4453,2.446,2.452,2.4539,2.4546,2.4631,2.4566,2.457,2.4573,2.4575,2.478,2.4782,0,0,0,0,0,0,2.4341,2.4353,2.4448,2.4452,2.4381,2.4427,2.4434,2.4457,2.4497,2.4501,2.4462,2.4459,2.4531,2.454,2.4548,2.4638,2.4571,2.4576,2.4579,2.4778,2.4781,2.4783,0,0,0,0,0,0,2.4338,2.435,2.4445,2.4402,2.4414,2.4431,2.4457,2.4459,2.4477,2.4503,2.4506,2.4477,2.453,2.4541,2.4604,2.464,2.4578,2.4582,2.4775,2.4778,2.4782,2.4817,0,0,0,0,0,0,2.4335,2.4349,2.4374,2.4403,2.4417,2.4497,2.4459,2.4462,2.4485,2.4482,2.4518,2.4523,2.4529,2.4597,2.4609,2.4646,2.4586,2.4772,2.4776,2.4781,2.4812,2.4821,2.4828,0,0,0,0,0,2.433,2.4384,2.4376,2.4387,2.4448,2.4499,2.4507,2.4511,2.4488,2.4515,2.4532,2.4522,2.4634,2.4603,2.4617,2.4656,2.4769,2.4775,2.478,2.4809,2.4819,2.4828,0,0,0,0,0,0,2.4363,2.4387,2.4379,2.4442,2.4468,2.4495,2.453,2.4521,2.4558,2.4553,2.456,2.4568,2.4633,2.4651,2.4617,2.473,2.4699,2.4707,2.4716,2.4726,2.4734,2.4729,2.4591,0,0,0,0,0,2.4376,2.4412,2.4433,2.4488,2.4501,2.4513,2.4536,2.4535,2.4564,2.4576,2.4598,2.4629,2.4672,2.47,2.474,2.4815,2.4824,2.4849,2.4857,2.4863,2.4871,2.4914,2.4925,2.4801,2.4801,2.4801,0,0,2.4407,2.4425,2.4447,2.4494,2.4515,2.4555,2.4523,2.4567,2.4598,2.4584,2.4644,2.4661,2.4697,2.4767,2.4799,2.4784,2.4907,2.487,2.4875,2.4879,2.492,2.4932,2.4943,2.4805,2.4804,2.4803,0,0,2.4482,2.4498,2.4545,2.4566,2.4595,2.4603,2.4615,2.4643,2.4653,2.4712,2.4703,2.4743,2.4815,2.4842,2.4865,2.4951,2.4944,2.4964,2.5006,2.5048,2.5058,2.5067,2.5099,2.5111,2.4972,2.4972,2.4972,0,2.4517,2.4573,2.4572,2.4616,2.4638,2.4624,2.4674,2.4695,2.4739,2.4756,2.4738,2.4829,2.4852,2.4928,2.4949,2.4968,2.4984,2.496,2.5056,2.5065,2.5073,2.5104,2.5116,2.4974,2.4974,2.4974,2.4973,0,2.4616,2.4656,2.4691,2.4728,2.4755,2.4802,2.4811,2.4838,2.4837,2.4848,2.491,2.4938,2.4984,2.5002,2.5002,2.5079,2.5069,2.5053,2.5022,2.5087,2.5117,2.5128,2.4977,2.4977,2.4976,2.4975,0,0,2.4714,2.4749,2.4762,2.478,2.4812,2.4844,2.4893,2.4934,2.4958,2.4989,2.5032,2.5094,2.5079,2.5105,2.5109,2.5145,2.5214,2.5125,2.5126,2.5142,2.5303,2.5315,2.5329,2.5209,2.5211,2.5213,2.53,0,2.4793,2.4872,2.4872,2.4947,2.4986,2.4973,2.5016,2.5042,2.5054,2.5092,2.5107,2.5151,2.5128,2.5144,2.5179,2.5198,2.5246,2.5191,2.5252,2.5254,2.5244,2.5344,2.5357,2.5438,2.5312,2.5314,2.5315,0,2.4895,2.4925,2.5003,2.503,2.5046,2.5083,2.5122,2.5157,2.5188,2.5195,2.5223,2.5221,2.5275,2.5241,2.5316,2.5279,2.5304,2.5317,2.5321,2.5328,2.5289,2.5355,2.5464,2.5476,2.5333,2.5332,2.533,0,2.496,2.502,2.5075,2.509,2.5123,2.515,2.5165,2.5194,2.5219,2.5255,2.5272,2.5315,2.5339,2.5374,2.5385,2.5359,2.5461,2.5428,2.5471,2.5471,2.5494,2.5492,2.5609,2.5508,2.5508,2.5508,2.5507,0,2.5048,2.5097,2.5104,2.5138,2.5193,2.5195,2.5251,2.5265,2.5291,2.533,2.5324,2.5362,2.5373,2.5415,2.5424,2.5487,2.5498,2.5507,2.5509,2.5508,2.5507,2.5526,2.5521,2.5511,2.551,2.551,2.5509,0,2.513,2.5137,2.5195,2.5221,2.5228,2.5268,2.5292,2.5327,2.5337,2.5388,2.54,2.5419,2.5467,2.5481,2.554,2.5547,2.562,2.5617,2.5608,2.5609,2.5652,2.5648,2.5786,2.5806,2.569,2.5691,2.5692,0,2.5186,2.5223,2.5251,2.5275,2.5291,2.533,2.5355,2.5359,2.5386,2.5425,2.5456,2.5502,2.554,2.5619,2.5641,2.5687,2.5685,2.573,2.5693,2.5691,2.5688,2.5686,2.5691,2.5738,2.5739,2.574,2.5741,0,2.5286,2.5288,2.5321,2.5357,2.5386,2.5416,2.5445,2.5466,2.5475,2.5506,2.5553,2.5582,2.5641,2.5689,2.5736,2.5757,2.5752,2.5753,2.5765,2.5765,2.5759,2.5765,2.5629,2.575,2.5749,2.5748,2.5748,2.5747,2.5358,2.539,2.5415,2.5454,2.5475,2.5502,2.5535,2.555,2.5588,2.5633,2.5635,2.5687,2.572,2.5782,2.5805,2.5849,2.5836,2.5854,2.5859,2.5864,2.5868,2.5751,2.5857,2.5857,2.5857,2.5857,2.5857,0,2.5459,2.5474,2.5509,2.5547,2.5579,2.5567,2.5599,2.5627,2.5672,2.5701,2.5737,2.5793,2.584,2.5865,2.5912,2.5943,2.5942,2.5955,2.5954,2.596,2.5876,2.5861,2.5955,2.5955,2.5955,2.5955,2.5955,2.5955,2.5515,2.5569,2.5573,2.564,2.5656,2.5703,2.5722,2.5749,2.5772,2.5833,2.587,2.5885,2.5914,2.5963,2.6007,2.6014,2.6033,2.6048,2.6053,2.5975,2.5965,2.5956,2.5941,2.6051,2.6051,2.6133,2.6134,2.6135]}]]